Simultaneous Nadir Overpasses (SNOs) Predictions

Prediction of SNOs over PacNW region [( 10.00, 139.50) to ( 22.70, 165.60)] between AQUA and NPP Satellites:

Table of predicted SNOs over PacNW region for the next 30.0 days since TLE Epoch: 11/9/2014
Index Date (AQUA) Time (AQUA) AQUA Lat,Lon Date (NPP) Time (NPP) NPP Lat,Lon Distance(km) Time Diff (sec)
1 11/11/2014 03:28:32 10.12, 150.31 11/11/2014 03:32:00 9.26, 148.93 178.01 208
2 11/13/2014 15:32:06 10.04, 152.34 11/13/2014 15:29:38 10.00, 152.49 16.34 148
3 11/19/2014 02:38:49 10.10, 162.75 11/19/2014 02:41:23 9.82, 161.49 141.32 154
4 11/21/2014 16:18:41 19.18, 142.11 11/21/2014 16:17:43 19.22, 141.95 16.75 58
5 11/27/2014 03:27:49 10.07, 150.50 11/27/2014 03:31:18 7.12, 149.41 349.98 209
6 11/29/2014 15:29:44 15.75, 153.81 11/29/2014 15:27:54 15.75, 153.81 0.02 110
7 12/05/2014 02:37:48 10.07, 163.01 12/05/2014 02:41:12 9.72, 161.51 169.06 204




NCC Satellite Simultaneous Nadir Overpasses (SNOs) Prediction Service
